Location: Congrier
(47.8099°N, 1.1170°W)
Time: 07:36:04
(UTC+00:00)

Cosmos 1867 - Pass Details

Date: 28 January 2023
Orbit: 778 x 797 km, 65.0° (Epoch: 23 March)

Event Time Altitude Azimuth Distance (km) Brightness Sun altitude
Rises 17:34:03 0° 323° (NW) 3,311 7.0 -6.3°
Reaches altitude 10° 17:36:30 10° 325° (NW) 2,378 6.3 -6.7°
Maximum altitude 17:41:59 71° 50° (NE) 843 3.6 -7.6°
Drops below altitude 10° 17:47:25 10° 135° (SE) 2,362 5.8 -8.5°
Sets 17:49:50 0° 137° (SE) 3,286 6.5 -8.9°
